Location: Ariel
(45.9570°N, 122.5700°W)
Time: 18:47:04
(UTC-07:00)

Altair - Pass Details

Date: 20 July 2019
Orbit: 1501 x 1683 km, 47.2° (Epoch: 19 August)

Event Time Altitude Azimuth Distance (km) Brightness Sun altitude
Rises 19:58:46 0° 292° (WNW) 4,669 12.7 7.7°
Reaches altitude 10° 20:02:04 10° 284° (WNW) 3,703 12.1 7.1°
Maximum altitude 20:10:13 35° 223° (SW) 2,316 8.8 5.8°
Drops below altitude 10° 20:18:37 10° 162° (SSE) 3,811 9.2 4.5°
Sets 20:22:06 0° 154° (SSE) 4,820 9.6 4.0°
